Theta_e
308 309 309 310 311 311 310 308 307 306 307 308 309 310 310 309 308 307 306 304 303 303 303 305 305 305 305 304 299 302 301 301 300 302 301 300 300 299 301 299 301 303 302 303 304 305 303 302 302 305 300 303 304 304
307 308 309 309 311 311 310 309 307 306 306 306 308 308 309 309 309 309 308 307 306 304 303 303 304 305 304 304 304 303 301 302 303 299 298 297 301 296 298 300 297 301 301 302 302 303 302 304 304 305 304 303 303 303
307 308 309 309 310 310 310 309 307 306 306 305 305 306 307 307 308 308 308 307 305 303 303 303 303 303 304 304 305 304 303 304 304 304 300 298 302 297 300 298 299 298 299 300 301 301 301 302 302 302 303 303 303 303
306 308 308 308 309 310 310 309 307 306 305 305 304 303 303 305 306 307 307 306 304 304 302 302 303 303 303 303 303 304 303 304 305 305 303 299 301 300 298 298 297 299 298 298 298 299 303 303 304 303 301 301 301 302
307 308 308 308 308 308 310 309 307 305 305 305 304 303 303 302 306 307 307 303 304 304 303 303 302 302 302 302 303 303 302 303 303 303 301 302 301 300 298 298 299 299 299 299 300 300 301 302 303 301 299 300 302 301
307 307 308 308 308 308 308 308 306 305 305 305 304 302 301 301 305 306 304 301 302 305 304 298 300 300 300 300 300 301 301 301 302 303 302 302 301 301 300 301 302 303 303 302 302 302 301 301 300 299 297 297 301 302
307 307 308 309 308 308 308 308 308 306 304 304 303 301 300 300 304 303 305 304 305 305 304 300 299 300 300 300 300 300 300 301 302 302 301 301 302 303 300 302 303 302 303 302 301 299 298 299 298 298 298 298 299 300
307 307 308 308 309 308 308 309 308 306 303 301 300 299 299 303 300 301 303 304 304 303 302 292 294 299 299 299 299 299 300 300 300 300 300 300 300 300 301 302 304 303 300 300 298 297 297 297 298 298 299 299 299 299
307 308 308 309 309 309 308 308 308 305 303 300 299 299 302 301 301 301 301 301 301 301 300 297 296 294 299 299 299 299 299 296 298 298 298 298 298 300 301 302 302 301 298 298 300 299 299 300 300 300 299 299 299 300
308 308 309 309 308 309 308 308 306 302 299 299 299 300 300 302 302 302 300 299 299 299 299 298 298 297 298 298 297 298 297 295 292 297 298 297 298 300 301 302 300 298 299 299 299 300 300 300 300 300 300 300 298 299
307 308 308 308 308 309 307 307 301 299 298 300 299 301 301 302 301 300 299 298 298 298 298 297 297 295 298 295 296 298 293 297 300 294 299 297 298 299 300 298 299 300 300 299 300 300 300 299 300 299 299 300 300 300
308 308 307 308 305 304 298 298 297 298 299 299 300 301 301 300 299 297 294 297 298 299 297 296 297 298 298 298 298 296 295 297 299 294 299 298 295 300 300 300 300 299 298 297 297 297 298 298 298 298 298 297 298 299
300 300 299 298 297 297 298 297 298 298 298 300 300 299 298 297 298 296 293 298 298 298 297 297 295 297 297 297 295 294 297 297 293 296 296 294 297 299 299 299 299 297 296 296 297 296 296 297 298 297 296 296 296 297
296 296 296 297 297 296 296 299 299 300 300 299 298 296 294 294 292 292 292 292 296 297 297 297 296 296 296 294 294 296 295 294 297 298 295 291 298 299 298 298 297 297 297 297 297 297 297 297 297 298 297 296 296 295
294 294 293 293 294 294 295 296 298 299 298 298 297 296 291 296 297 297 297 298 298 297 297 297 295 295 292 293 296 296 297 299 297 295 292 297 297 297 297 297 297 297 296 295 295 294 295 296 296 297 297 296 295 295
292 293 292 292 292 292 294 296 297 298 297 296 296 294 296 295 295 296 296 297 298 297 297 297 291 289 292 295 297 298 299 297 294 292 297 296 296 296 295 294 293 293 293 294 294 294 294 295 295 295 295 295 295 296
293 291 290 290 290 291 292 294 295 294 296 295 294 295 295 295 296 297 297 297 298 297 295 294 292 294 291 295 295 292 294 293 297 297 296 296 296 295 293 292 292 292 293 293 294 294 294 293 293 294 294 294 295 298
290 289 290 292 291 291 293 293 292 294 293 293 293 294 294 295 295 296 296 297 297 297 296 295 295 285 290 294 291 292 296 296 295 295 296 295 294 292 292 292 291 292 293 293 294 294 293 293 293 294 294 294 296 298
290 291 291 292 292 292 292 291 292 291 291 292 292 292 293 294 294 293 293 294 295 296 296 295 287 288 292 293 294 295 295 295 296 295 293 292 292 292 292 292 293 293 293 293 293 293 293 293 293 294 294 295 296 297
291 292 292 292 292 292 292 292 292 291 289 290 291 292 293 293 292 292 292 292 293 294 293 292 290 294 294 294 294 294 293 293 293 293 293 293 292 292 292 293 293 293 293 293 293 293 293 293 294 295 295 295 296 296
291 292 292 292 293 291 292 291 291 291 291 291 290 290 292 292 292 292 292 292 293 293 293 293 293 292 292 292 292 292 292 292 292 292 292 292 292 292 292 292 292 292 292 293 293 293 293 294 295 296 296 296 296 296
291 291 292 291 291 291 291 290 291 291 290 290 290 290 289 288 289 291 292 291 292 292 292 292 292 292 292 292 292 292 292 292 292 292 292 292 292 292 292 292 292 292 292 293 293 293 294 295 294 294 294 295 296 295
292 291 291 291 291 291 290 290 290 289 288 289 288 287 287 288 290 289 290 290 291 291 291 291 291 291 291 292 292 292 292 292 292 291 291 291 291 291 291 292 292 292 292 292 293 293 293 294 294 294 294 294 294 295
291 292 292 291 291 288 288 289 289 288 287 286 284 283 281 286 288 287 281 290 291 291 291 291 291 291 291 291 291 291 291 291 291 290 291 290 290 291 291 292 292 292 291 291 291 291 291 292 293 293 293 293 292 293
291 291 291 291 290 288 289 288 285 288 287 286 284 278 279 287 278 277 280 289 291 290 290 290 290 290 290 290 290 290 290 290 290 290 290 290 290 290 290 290 291 292 291 291 291 291 291 290 290 291 292 292 292 292
291 291 291 290 287 286 285 285 287 283 279 280 282 285 283 274 277 284 283 290 290 290 290 290 290 290 290 290 290 290 290 290 290 290 290 289 289 289 290 290 290 290 290 290 290 291 290 290 291 291 292 291 291 292
292 291 291 290 290 289 285 285 285 280 279 281 279 278 278 284 284 284 290 290 290 290 290 290 290 290 290 290 289 289 289 289 289 289 289 289 289 289 289 290 290 290 290 290 290 290 290 290 290 290 290 291 292 292
291 290 287 288 288 288 281 279 279 281 282 287 283 279 281 282 287 290 290 290 290 290 290 290 290 289 289 289 289 289 289 289 289 289 288 288 289 289 289 289 289 289 290 289 289 290 290 290 290 290 291 291 291 292
289 289 289 285 284 285 286 284 283 289 291 289 282 287 286 290 290 290 290 290 290 289 289 289 289 288 288 288 288 288 288 288 288 288 288 288 288 289 288 288 289 289 289 289 289 290 290 290 290 290 291 291 291 291
289 289 287 282 282 283 289 289 290 291 290 290 289 289 289 289 290 290 289 289 289 289 289 288 288 288 288 288 288 288 289 288 288 288 288 288 288 289 289 289 288 289 289 289 289 289 290 290 290 290 291 291 291 291
289 288 288 285 283 290 291 291 290 290 290 289 289 288 288 289 289 289 288 288 288 288 289 289 290 290 289 289 289 289 289 290 289 289 289 289 289 289 289 289 289 289 289 289 289 289 289 289 290 290 291 291 291 291
288 288 285 280 282 290 290 289 289 289 289 289 288 288 288 287 287 288 290 290 290 290 291 290 290 290 290 290 290 289 289 289 289 289 289 289 289 289 289 289 289 289 289 289 289 289 289 289 290 291 291 291 292 292
284 284 285 286 286 287 288 288 288 286 287 287 288 288 288 288 287 289 290 290 290 291 290 291 290 290 290 290 291 290 290 290 290 289 289 289 289 289 289 289 289 289 289 289 289 289 289 290 290 291 291 292 292 292
Wind_Speed
26 23 21 18 17 14 10 7 6 6 5 5 5 5 7 8 9 9 7 8 5 3 4 6 6 5 4 4 3 4 2 1 2 2 2 3 3 4 1 4 5 6 6 4 4 2 6 7 3 3 3 8 22 28
29 26 22 20 18 15 12 9 7 6 5 5 5 6 6 7 8 9 9 11 11 5 3 4 8 8 8 5 2 6 2 3 4 3 1 2 2 1 2 3 0 3 5 5 9 6 3 4 8 10 18 22 17 28
32 28 24 21 19 16 13 11 8 6 5 6 6 7 7 8 8 9 11 12 10 3 3 3 6 10 11 10 9 4 4 5 4 3 5 2 2 4 4 5 2 4 6 3 1 1 1 19 13 10 23 24 38 34
35 31 27 22 20 17 14 12 10 8 6 6 6 8 9 7 8 9 10 10 7 4 1 1 3 4 4 6 8 13 11 4 4 3 2 2 2 6 3 1 3 4 6 4 5 9 15 1 23 32 35 32 28 25
37 33 29 25 21 18 15 14 13 11 8 7 8 9 9 9 7 9 9 2 5 7 3 3 6 7 8 9 10 9 10 13 7 1 1 3 2 2 1 1 4 8 5 4 4 1 3 21 31 27 30 34 31 31
39 34 30 27 23 20 16 14 13 12 11 9 9 9 9 8 7 8 2 1 1 13 5 2 2 2 1 2 3 5 8 8 5 5 4 4 3 2 2 3 6 9 7 6 6 20 24 24 20 23 29 29 26 25
38 34 30 27 25 24 20 15 15 13 12 10 10 10 10 8 6 4 4 4 11 9 2 5 2 0 1 3 4 4 7 4 3 3 2 2 2 4 2 3 4 2 9 13 11 14 15 10 24 26 25 27 24 22
35 33 32 31 29 27 24 20 17 15 13 11 10 9 8 7 9 9 10 10 8 5 4 1 3 1 3 1 0 3 5 6 4 3 2 2 2 2 4 10 11 9 13 3 12 10 10 15 19 21 23 26 26 24
36 34 37 34 32 31 25 20 19 17 15 11 10 7 6 6 4 5 3 3 4 5 2 2 2 3 5 3 2 1 1 1 3 2 2 3 2 5 7 7 5 11 8 8 13 13 16 21 25 28 29 29 30 29
34 33 33 33 31 29 27 24 20 18 13 10 9 5 4 4 5 5 3 1 1 3 4 3 3 3 4 3 2 4 1 1 1 2 3 2 3 18 15 12 1 6 7 10 18 24 25 27 27 28 29 30 29 28
39 33 39 37 35 35 26 25 20 18 14 13 7 5 5 5 2 1 1 1 1 2 3 3 8 1 4 2 2 3 3 2 2 3 1 2 3 3 5 8 7 5 7 11 12 17 21 24 28 29 29 28 28 29
43 39 40 34 34 33 26 24 22 20 12 10 5 6 5 3 2 1 1 2 3 2 3 3 3 5 2 3 2 2 2 1 3 1 2 3 3 8 9 7 5 8 12 16 20 23 24 24 24 25 28 30 30 31
37 36 35 32 29 28 26 21 19 16 13 12 5 4 3 2 2 6 5 3 2 3 4 5 3 4 3 2 4 2 2 3 2 1 4 4 2 12 12 9 12 14 17 21 24 26 28 29 27 28 29 29 31 32
26 26 27 27 26 25 23 22 19 20 13 4 5 3 4 3 4 4 4 3 2 3 6 6 4 1 2 2 3 3 1 3 1 3 5 3 9 6 6 12 27 21 21 25 28 31 33 34 34 32 33 33 34 36
22 21 19 18 18 19 20 19 19 19 6 5 4 3 4 5 3 1 2 2 1 3 7 4 2 2 0 2 2 2 3 3 5 4 3 7 7 16 18 18 23 21 28 34 37 39 37 35 36 39 37 37 37 38
18 18 18 18 17 17 19 19 17 14 4 5 4 1 3 1 3 7 8 8 3 5 4 2 2 3 3 3 5 7 4 6 4 3 2 20 24 23 29 33 32 34 37 41 43 38 34 33 35 39 41 40 36 34
18 13 19 19 18 18 18 18 13 6 6 5 4 6 5 1 3 1 3 4 5 6 2 3 3 8 3 3 3 3 5 4 4 7 22 28 30 37 45 46 44 44 39 40 39 39 42 41 40 40 41 40 35 32
13 16 19 20 21 20 18 8 6 6 4 6 4 6 11 8 6 6 4 4 3 6 5 4 2 3 5 5 4 4 8 13 23 32 37 38 40 43 42 44 44 40 39 42 42 42 42 43 43 43 41 39 38 31
13 17 19 20 21 13 7 8 4 4 5 2 6 8 8 8 12 12 12 12 11 9 4 3 3 4 5 8 6 18 25 28 30 34 42 44 42 41 40 37 37 38 41 44 43 43 43 44 42 41 39 38 35 32
14 16 16 19 17 4 4 4 5 2 3 3 6 9 7 6 9 11 13 15 16 6 6 4 4 16 18 26 30 36 42 42 38 34 38 39 35 33 34 33 37 43 44 43 41 40 43 43 41 41 41 38 33 34
16 17 17 17 14 3 3 5 5 3 3 4 4 6 5 12 16 20 22 16 9 5 6 18 31 38 41 43 43 45 46 41 38 37 40 39 38 34 40 42 40 39 38 39 39 42 38 41 39 37 37 34 33 33
20 21 16 15 5 7 5 7 3 4 4 2 4 5 5 5 8 10 11 13 10 27 33 35 39 41 43 45 47 46 46 45 44 45 46 43 39 36 36 38 36 36 37 38 37 37 36 33 34 38 37 34 33 33
20 21 11 8 6 9 4 10 6 5 3 4 4 3 4 5 6 5 6 8 13 26 29 34 38 40 45 46 46 46 47 48 49 48 48 45 42 41 39 33 28 29 33 35 35 37 37 35 40 38 36 36 35 37
27 17 11 11 11 7 7 8 7 5 3 3 4 3 4 8 6 6 4 13 30 33 35 40 41 43 44 43 42 47 45 43 42 42 40 39 40 40 36 35 34 34 35 39 38 37 35 36 36 41 38 34 36 37
13 11 10 7 10 8 6 5 4 4 5 6 4 4 4 7 3 3 5 20 34 37 38 38 38 39 37 41 43 43 41 41 40 40 39 40 42 40 39 38 39 41 40 43 41 40 41 43 43 43 43 41 40 37
6 10 12 13 10 8 8 7 10 9 4 6 8 6 3 3 2 6 5 29 31 34 35 38 39 37 37 41 42 44 46 43 43 44 49 50 47 43 44 44 45 46 43 40 36 38 44 47 45 43 45 43 38 33
7 5 9 12 13 8 4 3 6 4 6 7 4 5 4 5 7 8 32 35 35 36 36 38 40 43 45 47 49 49 49 48 46 49 49 45 45 46 45 46 45 51 48 47 41 40 43 45 44 42 40 37 32 29
6 12 9 16 8 11 5 4 6 8 5 9 8 4 7 8 9 34 38 41 43 44 46 50 54 53 53 53 53 52 52 50 49 49 49 50 50 50 51 50 48 46 43 40 40 36 35 36 37 34 33 33 32 31
6 9 15 5 5 5 12 8 8 13 23 15 5 6 10 35 43 43 48 50 51 46 49 53 58 52 46 48 49 48 47 46 44 43 44 44 47 51 42 39 39 39 40 39 36 31 31 31 31 31 31 32 33 33
9 19 10 8 7 7 15 21 22 33 32 29 30 30 35 47 56 50 45 48 48 51 55 50 50 47 47 44 47 47 43 43 43 43 42 43 48 45 42 41 38 38 37 35 33 33 31 28 27 27 29 32 32 33
7 16 6 9 8 21 35 35 32 32 34 37 39 32 42 52 56 54 49 53 48 48 44 41 39 40 42 44 44 44 46 44 42 41 41 42 41 40 38 38 36 34 34 32 28 29 31 30 28 27 28 30 30 30
13 13 9 3 7 27 24 22 17 18 28 28 29 29 36 26 26 39 43 26 22 24 27 29 34 38 34 35 37 40 42 45 46 44 42 39 39 40 41 38 37 37 37 35 33 33 34 31 27 27 28 28 26 24
7 9 10 5 4 5 9 5 6 7 13 16 26 31 30 19 12 25 27 24 21 24 25 27 29 30 27 30 36 40 41 41 42 40 40 38 36 34 32 30 28 29 29 29 30 30 28 25 26 25 24 23 22 21
Wind_Direction
220 228 231 225 228 231 236 252 275 293 305 317 336 343 358 6 10 11 6 360 0 293 245 212 207 201 184 183 148 159 81 237 65 122 152 205 174 217 164 182 184 174 152 193 168 216 282 191 100 196 231 325 324 319
218 224 231 226 223 225 235 240 251 268 289 306 315 325 331 340 352 358 355 345 331 277 249 220 229 223 219 212 181 185 191 188 194 99 181 119 206 74 173 270 1 241 190 182 190 216 250 187 252 286 305 311 323 322
216 221 226 229 222 221 230 235 237 251 273 299 309 309 310 322 329 336 341 342 338 312 279 245 234 236 233 233 230 233 221 203 188 185 158 164 212 143 190 236 236 236 183 229 7 267 225 302 317 349 328 307 312 314
214 216 221 224 225 218 223 229 231 234 253 274 289 300 304 303 315 328 339 343 356 322 331 220 224 223 227 228 229 232 245 208 170 168 149 141 219 195 215 220 207 218 157 198 263 307 346 216 326 327 325 325 324 314
213 213 217 222 226 224 220 225 230 229 240 262 284 297 312 312 311 324 325 331 49 26 293 284 278 258 258 261 241 227 222 221 218 230 120 228 230 168 49 357 250 190 196 172 230 287 239 289 313 325 328 328 329 325
211 211 212 216 221 226 221 223 228 233 238 255 275 290 298 302 317 331 305 218 286 358 328 334 284 277 238 206 230 203 200 211 201 186 196 222 222 194 177 234 260 226 236 271 294 311 301 307 316 328 327 329 327 327
211 211 211 213 217 222 228 236 236 237 245 255 267 279 288 282 283 278 282 280 302 323 287 305 339 176 195 170 141 137 155 162 179 192 232 286 253 222 218 237 259 117 323 323 326 334 324 335 326 337 336 338 336 325
211 213 213 214 218 224 227 232 240 241 246 249 254 268 271 259 280 277 270 277 286 274 243 134 273 257 180 217 171 142 146 156 174 181 189 221 252 240 255 251 277 325 336 91 348 351 328 344 354 355 355 351 348 345
212 213 216 214 217 221 221 230 237 241 237 239 247 253 246 258 242 257 287 244 230 232 248 176 189 228 163 141 118 95 135 92 161 182 233 168 205 219 226 256 324 338 339 341 25 24 17 9 2 2 359 357 352 350
217 218 216 216 219 223 228 229 230 226 216 217 208 207 222 220 234 261 279 259 165 234 237 222 213 235 179 163 122 121 79 160 148 227 159 201 255 259 269 264 259 88 52 12 2 9 3 0 357 352 351 350 346 342
220 216 220 213 218 215 211 218 208 200 187 185 198 220 191 180 225 239 197 158 177 267 234 247 213 213 194 129 173 174 170 160 230 264 202 260 265 237 130 117 103 71 33 14 6 356 351 345 341 339 340 339 338 336
218 213 207 209 204 198 184 183 180 185 183 182 188 166 171 176 159 107 247 257 212 240 215 199 205 211 177 164 128 141 119 151 230 318 231 256 252 158 132 101 67 34 16 4 357 348 342 340 338 333 333 331 328 324
168 170 172 169 171 171 169 166 163 167 167 156 188 183 177 172 173 187 195 219 226 202 202 185 178 172 152 166 90 106 146 209 106 194 241 237 242 144 118 62 31 8 358 350 344 342 337 332 329 327 328 329 325 320
150 153 156 155 152 153 157 165 163 159 156 168 160 201 185 212 240 196 173 193 217 235 196 176 131 135 152 111 145 137 141 123 193 245 239 245 198 162 309 332 345 332 340 342 339 335 329 325 321 319 319 319 319 315
130 131 133 138 146 148 155 163 169 168 162 166 166 225 223 234 155 169 294 299 278 186 155 139 103 185 349 114 177 132 162 217 210 233 237 91 5 329 334 313 320 321 328 330 329 328 325 319 314 312 313 312 315 314
135 142 151 154 159 161 163 167 174 176 186 174 211 250 225 334 284 229 243 274 261 172 155 148 112 53 245 187 193 205 185 216 245 210 208 330 332 333 330 326 321 317 318 323 323 321 318 315 311 308 307 308 313 310
157 164 161 160 155 156 157 160 157 174 200 179 229 231 197 143 255 262 223 227 184 169 217 158 136 223 123 226 225 204 204 218 193 282 314 319 324 324 321 318 316 317 318 318 316 316 317 317 312 310 310 314 311 309
162 157 157 159 159 155 157 158 168 188 182 199 215 223 212 220 214 232 246 214 180 202 182 222 198 170 210 201 236 234 248 287 300 306 308 308 307 305 303 305 306 310 311 314 312 311 313 311 311 312 313 310 309 306
152 154 164 167 163 149 151 174 189 190 206 174 225 228 222 232 245 261 267 268 256 240 253 235 234 212 232 240 286 293 291 291 292 295 296 298 301 301 301 304 305 303 305 307 309 310 307 305 306 308 307 306 306 306
156 153 160 167 169 160 140 143 182 170 202 206 205 206 212 226 256 261 262 263 261 240 216 231 228 259 276 279 278 281 285 289 290 288 289 293 295 295 293 295 297 300 300 304 305 305 304 304 306 308 307 305 305 307
164 165 176 182 191 191 168 175 168 179 210 240 226 212 229 242 249 253 252 254 226 217 244 247 256 265 274 275 278 279 279 279 277 277 280 286 289 289 291 296 300 299 299 299 298 299 298 301 307 306 305 304 304 306
178 183 170 180 175 187 221 197 184 175 204 238 192 217 244 236 238 242 239 202 226 237 244 254 262 267 271 274 279 281 284 287 286 285 287 286 283 284 287 295 293 291 291 288 291 301 305 306 305 304 308 308 309 309
181 174 174 167 190 204 219 180 176 209 202 206 178 194 236 235 226 207 233 225 241 264 268 266 271 276 273 277 279 280 282 282 283 285 286 286 290 292 289 287 287 290 293 296 300 299 306 308 304 307 304 305 309 311
190 179 178 182 195 192 169 189 198 183 217 196 187 241 243 222 203 206 237 257 270 277 273 272 273 274 277 275 275 281 290 291 288 290 292 291 292 289 289 283 281 285 292 296 301 305 304 303 303 302 304 307 311 310
167 178 177 173 184 157 182 173 193 180 234 196 190 263 251 194 172 227 230 269 273 274 277 280 279 276 265 270 280 285 294 288 284 285 291 291 290 286 283 288 284 283 294 293 294 302 303 306 306 304 304 307 312 311
193 181 180 169 172 167 181 172 197 203 154 182 225 229 170 117 147 234 233 268 270 278 286 287 285 278 274 280 278 283 287 288 286 279 283 285 285 282 282 285 290 289 288 291 289 295 301 300 301 299 300 306 308 307
185 169 173 181 174 159 149 156 168 153 175 202 215 172 157 201 231 242 272 277 277 285 289 289 286 284 280 281 281 279 283 286 281 280 283 281 281 282 279 277 278 286 289 289 287 290 292 294 296 298 301 304 305 305
179 168 172 176 163 176 146 168 175 201 218 212 152 184 194 205 248 271 280 290 290 289 288 288 287 286 284 282 282 281 280 279 278 278 277 278 278 278 277 276 277 280 283 284 285 285 287 289 294 298 300 300 302 304
171 180 161 149 126 181 207 192 208 226 241 229 188 239 247 262 274 280 284 287 288 286 285 286 287 286 284 284 283 282 281 281 276 271 270 270 276 278 275 276 280 281 281 281 283 280 279 280 285 291 293 295 298 298
189 179 170 159 166 208 228 214 234 251 253 254 254 263 272 274 280 286 284 285 284 283 285 284 284 283 281 281 282 285 284 279 274 268 263 265 271 285 285 281 278 278 279 281 281 285 281 274 278 283 284 286 288 291
182 182 195 186 219 239 246 254 259 263 264 268 271 261 265 278 290 289 285 286 282 286 285 287 294 295 290 290 287 284 288 298 290 285 279 280 282 283 282 279 279 279 280 281 282 282 283 283 283 284 282 286 292 295
191 192 174 192 260 260 256 259 261 266 270 268 264 266 270 274 281 289 293 294 275 276 292 295 297 298 302 303 301 298 296 295 295 290 284 278 277 281 278 280 279 278 279 280 283 280 279 282 279 278 286 292 298 299
204 214 216 245 261 250 254 231 249 268 263 256 263 265 262 249 254 273 283 283 283 294 302 302 303 302 303 308 306 301 298 297 295 289 285 287 287 284 284 280 278 279 279 278 275 275 277 274 272 281 287 290 295 297